Location: Strawberry
(45.6646°N, 111.9596°W)
Time: 12:53:16
(UTC+00:00)

Transit 4A - Pass Details

Date: 12 October 2022
Orbit: 871 x 973 km, 66.8° (Epoch: 26 November)

Event Time Altitude Azimuth Distance (km) Brightness Sun altitude
Rises 04:46:43 0° 243° (WSW) 3,586 11.2 -40.2°
Reaches altitude 10° 04:49:32 10° 252° (WSW) 2,629 10.5 -40.6°
Enters shadow 04:51:00 17° 261° (W) 2,178 10.1 -40.8°
